• In Österreich
  • Länderverzeichnis
  • Für 7 Tage
  • Wassertemperatur
  • Satellitenkarten
  • Wetterkarte
  • News
  • Widgets
  • user-avatar
    Anmelden

    Stündliche Wetter Rawson

    Heute, 17 Februar, Samstag

    Zeit Temperatur Niederschläge Wind Luftdruck Luftfeuchtigkeit
    00:00 +26°C° 0 mm 4 m/S 758 mmHg 38%
    01:00 +26°C° 0 mm 3 m/S 758 mmHg 40%
    02:00 +25°C° 0 mm 2 m/S 758 mmHg 40%
    03:00 +25°C° 0 mm 2 m/S 758 mmHg 40%
    04:00 +25°C° 0 mm 3 m/S 757 mmHg 40%
    05:00 +24°C° 0 mm 3 m/S 757 mmHg 41%
    06:00 +25°C° 0 mm 3 m/S 756 mmHg 38%
    07:00 +26°C° 0 mm 4 m/S 756 mmHg 35%
    08:00 +27°C° 0 mm 4 m/S 756 mmHg 36%
    09:00 +29°C° 0 mm 5 m/S 755 mmHg 33%
    10:00 +32°C° 0 mm 5 m/S 755 mmHg 30%
    11:00 +33°C° 0 mm 6 m/S 754 mmHg 27%
    12:00 +35°C° 0 mm 6 m/S 754 mmHg 25%
    13:00 +36°C° 0 mm 6 m/S 753 mmHg 23%
    14:00 +38°C° 0 mm 6 m/S 752 mmHg 20%
    15:00 +38°C° 0 mm 6 m/S 751 mmHg 20%
    16:00 +39°C° 0 mm 6 m/S 751 mmHg 20%
    17:00 +39°C° 0 mm 6 m/S 750 mmHg 19%
    18:00 +38°C° 0 mm 6 m/S 749 mmHg 22%
    19:00 +36°C° 0 mm 6 m/S 749 mmHg 25%
    20:00 +35°C° 0 mm 5 m/S 749 mmHg 28%
    21:00 +34°C° 0 mm 5 m/S 749 mmHg 29%
    22:00 +34°C° 0 mm 5 m/S 749 mmHg 29%
    23:00 +33°C° 0 mm 5 m/S 749 mmHg 29%

    Morgen, 18 Februar, Sonntag

    Zeit Temperatur Niederschläge Wind Luftdruck Luftfeuchtigkeit
    00:00 +33°C° 0 mm 6 m/S 749 mmHg 29%
    01:00 +32°C° 0 mm 6 m/S 749 mmHg 29%
    02:00 +30°C° 0 mm 7 m/S 749 mmHg 29%
    03:00 +29°C° 0 mm 7 m/S 749 mmHg 30%
    04:00 +28°C° 0 mm 6 m/S 749 mmHg 32%
    05:00 +27°C° 0 mm 6 m/S 749 mmHg 33%
    06:00 +27°C° 0 mm 6 m/S 750 mmHg 34%
    07:00 +27°C° 0 mm 6 m/S 750 mmHg 34%
    08:00 +27°C° 0 mm 6 m/S 750 mmHg 35%
    09:00 +28°C° 0 mm 6 m/S 750 mmHg 31%
    10:00 +29°C° 0 mm 6 m/S 750 mmHg 27%
    11:00 +30°C° 0 mm 6 m/S 750 mmHg 24%
    12:00 +32°C° 0 mm 5 m/S 750 mmHg 22%
    13:00 +32°C° 0 mm 5 m/S 749 mmHg 20%
    14:00 +33°C° 0 mm 5 m/S 749 mmHg 18%
    15:00 +33°C° 0 mm 5 m/S 749 mmHg 18%
    16:00 +33°C° 0 mm 5 m/S 748 mmHg 18%
    17:00 +33°C° 0 mm 5 m/S 748 mmHg 18%
    18:00 +32°C° 0 mm 6 m/S 748 mmHg 19%
    19:00 +32°C° 0 mm 6 m/S 749 mmHg 20%
    20:00 +30°C° 0 mm 6 m/S 749 mmHg 21%
    21:00 +29°C° 0 mm 6 m/S 749 mmHg 23%
    22:00 +28°C° 0 mm 7 m/S 750 mmHg 25%
    23:00 +27°C° 0 mm 7 m/S 750 mmHg 27%

    übermorgen, 19 Februar, Montag

    Zeit Temperatur Niederschläge Wind Luftdruck Luftfeuchtigkeit
    00:00 +24°C° 0 mm 8 m/S 751 mmHg 27%
    01:00 +23°C° 0 mm 9 m/S 751 mmHg 26%
    02:00 +22°C° 0 mm 10 m/S 751 mmHg 25%
    03:00 +21°C° 0 mm 10 m/S 752 mmHg 27%
    04:00 +18°C° 0 mm 10 m/S 752 mmHg 28%
    05:00 +17°C° 0 mm 9 m/S 753 mmHg 30%
    06:00 +17°C° 0 mm 9 m/S 753 mmHg 31%
    07:00 +17°C° 0 mm 9 m/S 754 mmHg 31%
    08:00 +17°C° 0 mm 9 m/S 754 mmHg 32%
    09:00 +18°C° 0 mm 9 m/S 754 mmHg 29%
    10:00 +20°C° 0 mm 8 m/S 755 mmHg 26%
    11:00 +21°C° 0 mm 7 m/S 755 mmHg 24%
    12:00 +22°C° 0 mm 7 m/S 755 mmHg 22%
    13:00 +23°C° 0 mm 6 m/S 754 mmHg 20%
    14:00 +24°C° 0 mm 6 m/S 754 mmHg 18%
    15:00 +24°C° 0 mm 6 m/S 754 mmHg 18%
    16:00 +24°C° 0 mm 6 m/S 754 mmHg 18%
    17:00 +26°C° 0 mm 6 m/S 754 mmHg 18%
    18:00 +23°C° 0 mm 6 m/S 754 mmHg 26%
    19:00 +21°C° 0 mm 6 m/S 755 mmHg 34%
    20:00 +20°C° 0 mm 6 m/S 755 mmHg 42%
    21:00 +20°C° 0 mm 6 m/S 755 mmHg 44%
    22:00 +19°C° 0 mm 6 m/S 756 mmHg 47%
    23:00 +19°C° 0 mm 6 m/S 756 mmHg 49%

    20 Februar, Dienstag

    Zeit Temperatur Niederschläge Wind Luftdruck Luftfeuchtigkeit
    00:00 +19°C° 0 mm 5 m/S 756 mmHg 49%
    01:00 +19°C° 0 mm 5 m/S 756 mmHg 49%
    02:00 +19°C° 0 mm 5 m/S 756 mmHg 49%
    03:00 +19°C° 0 mm 4 m/S 756 mmHg 51%
    04:00 +18°C° 0 mm 4 m/S 756 mmHg 53%
    05:00 +18°C° 0 mm 4 m/S 757 mmHg 55%
    06:00 +19°C° 0 mm 4 m/S 757 mmHg 49%
    07:00 +20°C° 0 mm 3 m/S 758 mmHg 44%
    08:00 +21°C° 0 mm 3 m/S 758 mmHg 38%
    09:00 +22°C° 0 mm 3 m/S 758 mmHg 33%
    10:00 +24°C° 0 mm 2 m/S 758 mmHg 27%
    11:00 +25°C° 0 mm 2 m/S 759 mmHg 22%
    12:00 +26°C° 0 mm 3 m/S 758 mmHg 21%
    13:00 +27°C° 0 mm 3 m/S 758 mmHg 20%
    14:00 +28°C° 0 mm 4 m/S 758 mmHg 19%
    15:00 +28°C° 0 mm 4 m/S 758 mmHg 18%
    16:00 +28°C° 0 mm 5 m/S 758 mmHg 18%
    17:00 +28°C° 0 mm 5 m/S 757 mmHg 17%
    18:00 +27°C° 0 mm 5 m/S 758 mmHg 20%
    19:00 +26°C° 0 mm 6 m/S 758 mmHg 22%
    20:00 +26°C° 0 mm 6 m/S 758 mmHg 24%
    21:00 +24°C° 0 mm 7 m/S 758 mmHg 30%
    22:00 +23°C° 0 mm 8 m/S 759 mmHg 37%
    23:00 +22°C° 0 mm 10 m/S 759 mmHg 43%

    21 Februar, Mittwoch

    Zeit Temperatur Niederschläge Wind Luftdruck Luftfeuchtigkeit
    00:00 +21°C° 0 mm 9 m/S 759 mmHg 46%
    01:00 +21°C° 0 mm 9 m/S 759 mmHg 49%
    02:00 +21°C° 0 mm 9 m/S 759 mmHg 52%
    03:00 +19°C° 0 mm 9 m/S 758 mmHg 55%
    04:00 +20°C° 0 mm 8 m/S 758 mmHg 58%
    05:00 +20°C° 0 mm 8 m/S 758 mmHg 60%
    06:00 +19°C° 0 mm 9 m/S 758 mmHg 58%
    07:00 +21°C° 0 mm 9 m/S 757 mmHg 55%
    08:00 +22°C° 0 mm 10 m/S 757 mmHg 53%
    09:00 +24°C° 0 mm 10 m/S 757 mmHg 43%
    10:00 +28°C° 0 mm 11 m/S 756 mmHg 32%
    11:00 +31°C° 0 mm 11 m/S 755 mmHg 22%
    12:00 +32°C° 0 mm 11 m/S 755 mmHg 18%
    13:00 +34°C° 0 mm 11 m/S 754 mmHg 14%
    14:00 +36°C° 0 mm 11 m/S 753 mmHg 9%
    15:00 +37°C° 0 mm 10 m/S 752 mmHg 9%
    16:00 +37°C° 0 mm 9 m/S 752 mmHg 9%
    17:00 +37°C° 0 mm 8 m/S 751 mmHg 8%
    18:00 +33°C° 0 mm 9 m/S 752 mmHg 15%
    19:00 +31°C° 0 mm 9 m/S 752 mmHg 21%
    20:00 +27°C° 0 mm 10 m/S 752 mmHg 28%
    21:00 +27°C° 0 mm 7 m/S 753 mmHg 28%
    22:00 +27°C° 0 mm 5 m/S 753 mmHg 29%
    23:00 +27°C° 0 mm 3 m/S 753 mmHg 30%

    22 Februar, Donnerstag

    Zeit Temperatur Niederschläge Wind Luftdruck Luftfeuchtigkeit
    00:00 +26°C° 0 mm 3 m/S 754 mmHg 31%
    01:00 +26°C° 0 mm 3 m/S 754 mmHg 33%
    02:00 +26°C° 0 mm 3 m/S 754 mmHg 34%
    03:00 +25°C° 0 mm 4 m/S 754 mmHg 37%
    04:00 +23°C° 0 mm 6 m/S 755 mmHg 39%
    05:00 +22°C° 0 mm 7 m/S 755 mmHg 41%
    06:00 +21°C° 0 mm 7 m/S 756 mmHg 43%
    07:00 +21°C° 0 mm 8 m/S 757 mmHg 44%
    08:00 +21°C° 0 mm 9 m/S 758 mmHg 46%
    09:00 +21°C° 0 mm 9 m/S 758 mmHg 47%
    10:00 +21°C° 0 mm 8 m/S 759 mmHg 47%
    11:00 +22°C° 0 mm 8 m/S 759 mmHg 47%
    12:00 +22°C° 0 mm 8 m/S 760 mmHg 45%
    13:00 +22°C° 0 mm 8 m/S 760 mmHg 42%
    14:00 +23°C° 0 mm 7 m/S 760 mmHg 40%
    15:00 +22°C° 0 mm 7 m/S 760 mmHg 42%
    16:00 +21°C° 0 mm 7 m/S 760 mmHg 44%
    17:00 +21°C° 0 mm 7 m/S 761 mmHg 45%
    18:00 +20°C° 0 mm 6 m/S 761 mmHg 51%
    19:00 +17°C° 0 mm 6 m/S 762 mmHg 57%
    20:00 +16°C° 0 mm 5 m/S 762 mmHg 63%
    21:00 +16°C° 0 mm 5 m/S 762 mmHg 64%
    22:00 +16°C° 0 mm 5 m/S 763 mmHg 65%
    23:00 +15°C° 0 mm 4 m/S 763 mmHg 66%
    Mehr zeigen